Location: Harwich
(41.6860°N, 70.0760°W)
Time: 01:19:32
(UTC-04:00)

Daily predictions for brighter satellites

Satellite Brightness Start Highest point End
(mag) Time Altitude Azimuth Time Altitude Azimuth Time Altitude Azimuth
ATLAS 3B R/B 4.5 00:54:09 27° NNW 00:54:09 27° NNW 00:59:01 10° NNE
Cosmos 1980 Rocket 4.5 02:02:11 20° NNE 02:02:11 20° NNE 02:03:52 10° NNE
CENTAUR R/B 3.8 02:23:02 37° NNE 02:23:02 37° NNE 02:27:16 10° NNE
Resurs 1-4 Rocket 3.6 02:51:00 10° NNE 02:53:59 33° NE 02:53:59 33° NE
CZ-2D R/B 3.2 03:03:22 10° NNE 03:06:59 42° NNE 03:06:59 42° NNE
Cosmos 2322 Rocket 3.6 03:14:58 30° NNW 03:14:58 30° NNW 03:18:06 10° NNE
SL-16 R/B 3.4 03:21:34 39° NNW 03:21:34 39° NNW 03:25:23 10° NNW
SL-16 R/B 3.6 03:22:22 30° NNW 03:22:22 30° NNW 03:25:44 10° N
Cosmos 2074 Rocket 4.3 03:14:34 10° N 03:20:45 60° E 03:21:14 58° E
Cosmos 2219 Rocket 4.0 03:20:35 21° ESE 03:21:47 23° E 03:26:03 10° NE
Cosmos 1844 Rocket 3.9 03:20:49 10° N 03:26:01 38° ENE 03:31:10 10° SE
ARIANE 5 R/B 3.6 03:25:51 10° N 03:29:07 40° N 03:29:07 40° N
COSMOS 2428 3.2 03:35:39 54° ESE 03:35:40 54° ESE 03:41:12 10° NNE
Cosmos 2360 Rocket 2.6 03:42:22 53° NNW 03:42:22 53° NNW 03:46:58 10° NNE
Cosmos 1570 Rocket 4.3 03:43:09 62° E 03:43:09 62° E 03:48:00 10° NNE
Okean O Rocket 3.6 03:40:15 10° NE 03:43:52 24° E 03:45:22 20° SE
Cosmos 2278 Rocket 4.2 03:44:20 10° N 03:49:06 27° NE 03:53:50 10° ESE
ATLAS 5 CENTAUR R/B 3.7 03:43:53 10° NNW 03:49:24 39° NE 03:55:23 10° ESE
Cosmos 2237 Rocket 4.1 03:50:27 14° SSE 03:54:04 25° ESE 03:58:38 10° NE
ADEOS Rocket 3.0 03:50:51 10° N 03:55:33 53° NW 03:55:33 53° NW
Cosmos 2184 Rocket 3.8 03:54:36 10° NNW 04:00:48 71° W 04:01:17 68° SW
SL-8 R/B 4.3 04:02:14 46° NNW 04:02:59 51° NNE 04:07:39 10° E
Cosmos 1536 Rocket 3.8 04:08:44 65° N 04:08:44 65° N 04:12:36 10° N
MOS 1-B 4.3 04:03:22 10° NNE 04:09:14 86° ESE 04:10:53 50° S
CENTAUR R/B 4.4 04:10:12 15° NW 04:12:44 19° NNW 04:17:35 10° NNE
COBE Rocket 4.4 04:10:43 10° N 04:15:12 46° NW 04:15:12 46° NW
Cosmos 1743 2.8 04:18:00 10° N 04:21:35 73° NNE 04:21:35 73° NNE
USA 215 3.7 04:15:46 10° ESE 04:22:10 60° NE 04:28:35 10° NW
Cosmos 2333 Rocket 2.6 04:19:44 28° S 04:22:38 60° ESE 04:28:17 10° NNE
Meteor 2-13 Rocket 4.5 04:21:30 10° NNW 04:27:26 53° W 04:29:10 41° SW
GPS 2-04 Rocket1 4.3 04:28:19 25° SSE 04:28:19 25° SSE 04:31:12 10° ESE
USA 229 DEB 3.6 04:29:44 34° SSW 04:33:00 88° ESE 04:40:00 10° NE
USA 229 3.6 04:29:49 34° SSW 04:33:06 87° SE 04:40:05 10° NE
Cosmos 2154 Rocket 3.9 04:29:06 10° NNW 04:35:16 71° W 04:41:26 10° S
Resurs 1-4 Rocket 3.6 04:31:51 10° NNW 04:35:04 20° NW 04:35:04 20° NW
DELTA 2 R/B (1) 3.5 04:34:42 46° WSW 04:36:21 73° S 04:41:53 10° E
Cosmos 2298 Rocket 4.3 04:32:02 10° NNW 04:37:22 71° ENE 04:42:41 10° SSE
Okean 1-7 Rocket 3.7 04:38:10 20° S 04:41:13 74° E 04:45:41 10° NNE
Aureole 2 Rocket 3.0 04:41:05 36° SSE 04:42:11 54° ESE 04:45:25 10° NNE
MOS 1 Rocket 3.4 04:39:25 10° N 04:43:50 47° WNW 04:44:29 43° W
Cosmos 1844 3.6 04:38:31 10° NNW 04:44:14 68° WSW 04:49:51 10° SSE
Cosmos 1238 Rocket 3.3 04:45:26 32° NNW 04:45:26 32° NNW 04:47:22 10° N
OTV 4 2.7 04:45:05 16° SE 04:45:05 16° SE 04:46:25 10° ESE
NOSS 3-1 (C) 4.3 04:41:27 12° S 04:46:23 46° ESE 04:52:23 10° NE
EO 1 Del DPAF 3.1 04:44:06 10° SSE 04:47:57 86° WSW 04:51:50 10° NNW
CZ-2D R/B 3.8 04:44:54 10° NNW 04:48:17 17° WNW 04:48:20 17° WNW
Nadezhda 1 Rocket 4.4 04:47:12 32° WSW 04:48:53 39° WNW 04:54:32 10° N
ERS-2 3.9 04:45:38 10° NE 04:48:59 32° E 04:52:18 10° SSE
SL-8 Rocket 4.3 04:42:54 10° N 04:49:05 68° E 04:55:13 10° SSE
SL-16 R/B 3.9 04:47:45 10° SSE 04:52:44 32° ESE 04:57:43 10° NE
CZ-4B R/B 3.2 04:47:17 10° NNE 04:52:57 87° WNW 04:58:13 11° SSW
ADEOS II 2.0 04:49:11 10° N 04:54:28 79° WNW 04:59:01 14° SSW
Hubble Space Telescope 3.1 04:56:01 11° S 04:56:39 12° S 04:58:11 10° SSE
CZ-4B DEB 4.1 04:52:24 10° NNE 04:57:59 79° WNW 05:03:22 11° SSW
Cosmos 2181 Rocket 3.9 04:52:35 10° SSW 04:58:48 77° W 05:05:10 10° N
EXPRESS MD2 4.3 04:56:47 20° SSW 04:59:56 42° SSE 05:02:57 10° ENE
Cosmos 1025 Rocket 2.9 04:57:26 13° S 05:01:24 84° W 05:05:49 10° N
Cosmos 1980 3.6 04:57:21 18° SSW 05:01:38 83° WNW 05:07:19 10° NNE
Okean 2 3.7 04:58:00 10° S 05:02:08 70° E 05:06:18 10° NNE
NOSS 0 Rocket 3.9 04:59:30 18° SSW 05:04:13 76° WNW 05:10:24 10° NNE
Cosmos 990 Rocket 4.0 04:59:01 10° NNW 05:04:13 82° ENE 05:09:22 10° SSE
Cosmos 2219 Rocket 2.4 05:02:20 25° SW 05:05:19 50° WNW 05:10:47 10° NNE
Cosmos 1844 Rocket 3.3 05:04:57 10° NW 05:09:45 31° WSW 05:14:32 10° SSW
Cosmos 371 Rocket 3.8 05:05:52 10° S 05:10:38 60° ESE 05:15:27 10° NNE
Cosmos 1867 3.6 05:05:55 10° NW 05:11:15 55° WSW 05:16:30 10° SSE
SAR-Lupe-3 4.4 05:07:46 10° S 05:11:20 65° W 05:14:54 10° NNW
Cosmos 1726 Rocket 3.9 05:07:17 10° N 05:11:45 69° E 05:16:11 10° SSE
Cosmos 468 Rocket 4.2 05:10:37 19° SW 05:14:06 51° WNW 05:19:14 10° N
CZ-4B R/B 3.5 05:12:00 10° N 05:15:15 30° WNW 05:16:29 24° WSW
Cosmos 332 Rocket 3.8 05:10:54 10° SSW 05:15:48 88° ESE 05:20:43 10° NNE
Meteor 2-9 Rocket 4.2 05:10:46 10° NNW 05:16:18 59° W 05:21:40 10° S
USA 116 4.2 05:12:40 10° SSE 05:17:04 85° ENE 05:22:04 10° NNW
CZ-4B R/B 4.5 05:12:56 10° NNE 05:17:26 69° E 05:21:52 10° S
Cosmos 1437 2.7 05:15:40 14° SSW 05:18:24 66° W 05:21:40 10° N
Okean O Rocket 2.4 05:16:18 10° N 05:20:15 32° WNW 05:22:51 18° WSW
COSMOS 2428 3.9 05:17:41 18° W 05:20:16 24° NW 05:24:51 10° N
Cosmos 2341 Rocket 4.3 05:14:48 10° NNW 05:20:36 42° W 05:26:21 10° SSW
Cosmos 1898 Rocket 3.8 05:15:53 10° NW 05:20:43 40° WSW 05:25:31 10° S
IRAS Rocket 4.3 05:15:52 10° N 05:21:18 58° WNW 05:26:46 10° SSW
Cosmos 2218 Rocket 4.0 05:15:46 10° N 05:22:10 81° W 05:28:28 10° S
Cosmos 2150 Rocket 4.2 05:18:30 10° NNW 05:23:38 51° WSW 05:28:49 10° S
Cosmos 1892 Rocket 3.5 05:20:09 10° S 05:24:30 88° E 05:28:55 10° N
Thor Agena Rocket 3.9 05:20:48 10° SSE 05:25:49 69° ENE 05:30:51 10° N
Cosmos 2360 Rocket 4.2 05:24:47 10° WNW 05:26:33 11° NW 05:28:18 10° NNW
Cosmos 2278 Rocket 2.4 05:27:59 10° NW 05:33:25 48° WSW 05:38:48 10° S
ATLAS 5 CENTAUR R/B 2.7 05:28:30 10° NW 05:34:15 45° WSW 05:40:25 10° S
Cosmos 1763 Rocket 3.5 05:31:24 10° SSW 05:36:25 60° WNW 05:41:31 10° NNE
Cosmos 2237 Rocket 2.6 05:32:21 10° SW 05:37:48 47° WNW 05:43:19 10° NNE
Okean-O 2.6 05:35:15 10° N 05:39:41 72° WNW 05:44:05 10° SSW
Cosmos 1666 4.2 05:39:35 10° NW 05:42:11 17° W 05:44:47 10° SW
Cosmos 1515 3.6 05:38:22 10° SSW 05:42:13 72° W 05:46:05 10° N
Cosmos 1441 Rocket 3.2 05:39:03 10° SSW 05:43:01 73° W 05:47:01 10° N
Cosmos 1937 Rocket 4.1 05:40:21 10° NW 05:45:08 35° W 05:49:53 10° SSW
SL-8 R/B 4.0 05:40:57 10° WNW 05:45:34 49° SW 05:50:10 10° SE
Cosmos 1602 Rocket 4.4 05:47:54 10° S 05:52:14 58° E 05:56:38 10° NNE
Cosmos 2297 3.7 05:46:32 10° NNW 05:52:16 75° WSW 05:57:57 10° SSE
Cosmos 841 Rocket 3.7 05:48:06 10° SW 05:53:07 53° WNW 05:58:10 10° N
Cosmos 405 Rocket 3.9 05:49:56 10° SW 05:53:19 25° WNW 05:56:41 10° NNW
Cosmos 540 Rocket 3.8 05:50:43 10° S 05:55:47 73° ESE 06:00:54 10° NNE
Meteor 2-21 Rocket 4.5 05:51:46 10° NNW 05:57:58 72° W 06:04:07 10° S
SKYMED 2 3.6 05:57:19 10° S 06:01:39 81° W 06:06:01 10° NNW
Cosmos 405 3.2 05:58:49 10° NNW 06:02:16 50° W 06:05:43 10° S
Cosmos 2058 Rocket 3.5 06:00:16 10° NNW 06:04:29 41° W 06:08:38 10° SSW
USA 215 3.7 05:59:09 10° SSE 06:05:18 42° SW 06:11:28 10° WNW
Cosmos 2366 rocket 4.4 05:59:55 10° NNW 06:05:50 42° W 06:11:43 10° SSW
Cosmos 2333 Rocket 3.5 06:02:52 10° WSW 06:07:19 23° NW 06:11:50 10° N
CZ-4C R/B 3.2 06:01:21 10° NNW 06:08:32 80° NE 06:16:29 10° SE
